Regional Weather Roundup
Issued by NWS

Home | Current Version | Previous Version | Text Only | Print | Product List | Glossary Off
Versions: 1 2 3 4 5 6 7 8 9 10 11 12 13 14 15 16 17 18 19 20 21 22 23 24 25 26 27 28 29 30 31 32 33 34 35 36 37 38 39 40 41 42 43 44 45 46 47 48 49 50

541
ASUS45 KBOI 121610
RWRID

IDAHO REGIONAL WEATHER ROUNDUP
NATIONAL WEATHER SERVICE BOISE ID
900 AM MST FRI FEB 12 2016

NOTE: "FAIR" INDICATES FEW OR NO CLOUDS BELOW 12000 FEET
WITH NO SIGNIFICANT WEATHER AND/OR OBSTRUCTIONS TO VISIBILITY

IDZ012-014-121700-
SOUTHWEST IDAHO


CITY           SKY/WX    TMP DP  RH WIND       PRES   REMARKS
BOISE          PTSUNNY   31  28  89 CALM      30.35R
CALDWELL       PTSUNNY   27  26  96 CALM      30.37R FOG
MOUNTAIN HOME  PTSUNNY   30  27  91 E6        30.34S WCI  24
$$

IDZ016-017-121700-
SOUTHCENTRAL IDAHO


CITY           SKY/WX    TMP DP  RH WIND       PRES   REMARKS
BURLEY         SUNNY     32  28  85 CALM      30.32R
JEROME         SUNNY     27  21  78 NE20      30.32S WCI  13
TWIN FALLS     SUNNY     30  28  92 E6        30.32R FOG     WCI  24
$$

IDZ019>023-121700-
SOUTHEAST IDAHO


CITY           SKY/WX    TMP DP  RH WIND       PRES   REMARKS
IDAHO FALLS    CLOUDY    19  16  88 N5        30.37S FOG     WCI  12
POCATELLO      CLOUDY    27  21  78 CALM      30.37R
REXBURG        FOG       22  21  96 CALM      30.36R VSB 1/4
$$

IDZ006-010-011-018-031-032-121700-
CENTRAL IDAHO MOUNTAINS


CITY           SKY/WX    TMP DP  RH WIND       PRES   REMARKS
MCCALL         FOG       21  19  92 CALM      30.28S VSB<1/4
HAILEY         MOSUNNY   30  27  86 NW7       30.35S WCI  23
STANLEY          N/A     22  14  71 CALM      30.36R
SALMON         SUNNY     21  19  93 CALM      30.35S
CHALLIS        FOG       20  19  96 CALM      30.33S VSB 1/4
$$

IDZ002-004-006-007-026-121700-
NORTHERN IDAHO


CITY           SKY/WX    TMP DP  RH WIND       PRES   REMARKS
LEWISTON       MOCLDY    43  40  89 SE3       30.22R
LOWELL           N/A     40  38  93 CALM      30.27F
COEUR D`ALENE  CLOUDY    37  36  93 E8        30.16F WCI  31
MULLAN PASS    FOG       35  34  96 S7        30.17F VSB 1/4 WCI  29
$$




USA.gov is the U.S. government's official web portal to all federal, state and local government web resources and services.